Home   Weather   Samara   Past weeks

Flag for Russia Past Weather in Samara, Russia — Yesterday and Last 2 Weeks

Now
16 °F

Light snow. Scattered clouds.


Feels Like: 2 °F
Forecast: 2 / 13 °F
Wind: 13 mph from Northwest

Location: Samara

Current Time: Dec 11, 2016 at 2:03:09 pm

Latest Report: Dec 11, 2016 at 1:30 pm


Visibility: N/A

Pressure: 29.45 "Hg

Humidity: 67%

Dew Point: 7 °F

Location of SamaraLocation

Past Weather in Samara — Graph

°F

Samara Temperature Yesterday

Maximum temperature yesterday: 27 °F (at 9:30 pm)
Minimum temperature yesterday: 19 °F (at 11:30 pm)
Average temperature yesterday: 22 °F

High & Low Weather Summary for the Past Weeks

 TemperatureHumidityPressure
High39 °F (Nov 28, 7:00 pm)100% (Nov 26, 5:30 pm)30.15 "Hg (Nov 26, 5:30 pm)
Low-11 °F (Dec 8, 8:00 am)62% (Nov 30, 4:30 pm)29.18 "Hg (Dec 10, 2:30 pm)
Average18 °F84%29.72 "Hg
* Reported Nov 26 1:00 pm — Dec 11 1:00 pm, Samara, Weather by CustomWeather, © 2016

Note: Actual official high and low records may vary slightly from our data, if they occured in-between our weather recording intervals... More about our weather records

Advertising

Samara Weather History for the Previous 24 Hours

Scroll right to see more
 ConditionsComfort  
Time TempWeatherWind HumidityBarometerVisibility
1:00 pm
Sun, Dec 11
16 °FLight snow. Scattered clouds.13 mph67%29.45 "HgN/A
12:30 pm16 °FLight snow. Scattered clouds.15 mph73%29.42 "HgN/A
12:00 pm16 °FPassing clouds.13 mph73%29.42 "HgN/A
11:30 am19 °FScattered clouds.13 mph68%29.39 "HgN/A
11:00 am19 °FPassing clouds.10 mph79%29.36 "HgN/A
10:30 am19 °FLight snow. Scattered clouds.8 mph86%29.36 "Hg3 mi
10:00 am19 °FLight snow. Scattered clouds.8 mph86%29.33 "Hg1 mi
9:30 am18 °FLight snow. Passing clouds.8 mph86%29.33 "HgN/A
9:00 am18 °FLight snow. Passing clouds.6 mph86%29.33 "HgN/A
8:30 am18 °FLight snow. Passing clouds.6 mph86%29.30 "HgN/A
8:00 am18 °FLight snow. Passing clouds.6 mph86%29.30 "Hg6 mi
7:30 am18 °FPassing clouds.8 mph86%29.30 "HgN/A
7:00 am18 °FLight snow. Passing clouds.6 mph86%29.27 "HgN/A
6:30 am18 °FLight snow. Passing clouds.6 mph86%29.27 "Hg6 mi
6:00 am18 °FLight snow. Passing clouds.8 mph86%29.27 "Hg6 mi
5:30 am18 °FLight snow. Passing clouds.10 mph86%29.27 "Hg6 mi
5:00 am18 °FLight snow. Passing clouds.10 mph86%29.24 "Hg5 mi
4:30 am18 °FLight snow. Passing clouds.8 mph86%29.24 "HgN/A
4:00 am18 °FPassing clouds.8 mph79%29.24 "HgN/A
3:30 am18 °FLight snow. Passing clouds.8 mph79%29.24 "HgN/A
3:00 am18 °FLight snow. Passing clouds.10 mph79%29.24 "HgN/A
2:30 am18 °FPassing clouds.10 mph79%29.24 "HgN/A
2:00 am18 °FPassing clouds.8 mph79%29.24 "HgN/A
1:30 am18 °FLight snow. Passing clouds.10 mph79%29.24 "HgN/A
1:00 am18 °FPassing clouds.8 mph79%29.24 "HgN/A
12:30 am19 °FLight snow. Passing clouds.8 mph79%29.24 "HgN/A
12:00 am19 °FLight snow. Passing clouds.10 mph73%29.24 "HgN/A
11:30 pm
Sat, Dec 10
19 °FPassing clouds.8 mph73%29.24 "HgN/A
11:00 pm21 °FPassing clouds.10 mph74%29.24 "HgN/A
10:30 pm23 °FPassing clouds.15 mph68%29.21 "HgN/A
10:00 pm23 °FLight snow. Mostly cloudy.15 mph74%29.21 "HgN/A
9:30 pm27 °FLight snow. Low clouds.6 mph93%29.21 "Hg5 mi
9:00 pm25 °FLight snow. Passing clouds.6 mph93%29.18 "Hg6 mi
8:30 pm25 °FLight snow. Passing clouds.6 mph93%29.18 "Hg3 mi
8:00 pm25 °FLight snow. Passing clouds.8 mph93%29.18 "Hg3 mi
7:30 pm25 °FLight snow. Passing clouds.8 mph93%29.18 "HgN/A
7:00 pm25 °FLight snow. Passing clouds.8 mph93%29.18 "Hg3 mi
6:30 pm25 °FLight snow. Passing clouds.10 mph93%29.18 "Hg3 mi
6:00 pm25 °FCold.10 mph93%29.18 "Hg1 mi
5:30 pm25 °FLight snow. Low clouds.8 mph93%29.21 "Hg2 mi
5:00 pm25 °FLight snow. Partly sunny.10 mph93%29.18 "Hg2 mi
4:30 pm25 °FLight snow. Partly sunny.13 mph86%29.18 "Hg2 mi
4:00 pm23 °FLight snow. Partly sunny.13 mph93%29.18 "Hg3 mi
3:30 pm23 °FLight snow. Partly sunny.15 mph86%29.18 "Hg6 mi
3:00 pm23 °FLight snow. Partly sunny.15 mph86%29.18 "Hg5 mi
2:30 pm23 °FLight snow. Partly sunny.17 mph86%29.18 "Hg2 mi
2:00 pm23 °FLight snow. Partly sunny.20 mph86%29.21 "Hg3 mi
Weather by CustomWeather, © 2016

See weather overviewHow to use our weather pages